Time,TemperatureF,DewpointF,PressureIn,WindDirection,WindDirectionDegrees,WindSpeedMPH,WindSpeedGustMPH,Humidity,HourlyPrecipIn,Conditions,Clouds,dailyrainin,SoftwareType,DateUTC
2013-05-16 06:44:00,67.1,55.8,30.09,North,0,0.0,0.0,67,0.00,,,0.00,VWS V14.01,2013-05-16 10:44:00,
2013-05-16 06:45:00,67.1,55.8,30.09,North,0,0.0,0.0,67,0.00,,,0.00,VWS V14.01,2013-05-16 10:45:00,
2013-05-16 06:47:00,67.1,55.8,30.09,North,0,0.0,0.0,67,0.00,,,0.00,VWS V14.01,2013-05-16 10:47:00,
2013-05-16 06:50:00,67.1,56.2,30.09,North,0,0.0,0.0,68,0.00,,,0.00,VWS V14.01,2013-05-16 10:50:00,
2013-05-16 06:51:00,67.1,56.2,30.09,North,0,0.0,0.0,68,0.00,,,0.00,VWS V14.01,2013-05-16 10:51:00,
2013-05-16 06:52:00,67.1,56.2,30.09,North,0,0.0,0.0,68,0.00,,,0.00,VWS V14.01,2013-05-16 10:52:00,
2013-05-16 06:54:00,66.9,56.0,30.09,North,0,0.0,0.0,68,0.00,,,0.00,VWS V14.01,2013-05-16 10:54:00,
2013-05-16 06:58:00,66.9,56.0,30.09,North,0,0.0,0.0,68,0.00,,,0.00,VWS V14.01,2013-05-16 10:58:00,
2013-05-16 06:59:00,66.9,56.0,30.09,North,0,0.0,0.0,68,0.00,,,0.00,VWS V14.01,2013-05-16 10:59:00,
2013-05-16 07:01:00,66.9,56.0,30.09,North,0,0.0,0.0,68,0.00,,,0.00,VWS V14.01,2013-05-16 11:01:00,
2013-05-16 07:04:00,66.9,56.0,30.09,North,0,0.0,0.0,68,0.00,,,0.00,VWS V14.01,2013-05-16 11:04:00,
2013-05-16 07:05:00,66.9,56.0,30.09,North,0,0.0,0.0,68,0.00,,,0.00,VWS V14.01,2013-05-16 11:05:00,
2013-05-16 07:10:00,66.9,56.0,30.09,North,0,0.0,0.0,68,0.00,,,0.00,VWS V14.01,2013-05-16 11:10:00,
2013-05-16 07:11:00,66.9,56.0,30.09,North,0,0.0,0.0,68,0.00,,,0.00,VWS V14.01,2013-05-16 11:11:00,
2013-05-16 07:13:00,67.1,55.8,30.09,North,0,0.0,0.0,67,0.00,,,0.00,VWS V14.01,2013-05-16 11:13:00,
2013-05-16 07:16:00,67.1,56.2,30.09,North,0,0.0,0.0,68,0.00,,,0.00,VWS V14.01,2013-05-16 11:16:00,
2013-05-16 07:17:00,67.1,56.2,30.09,North,0,0.0,0.0,68,0.00,,,0.00,VWS V14.01,2013-05-16 11:17:00,
2013-05-16 07:18:00,67.1,56.2,30.09,North,0,0.0,0.0,68,0.00,,,0.00,VWS V14.01,2013-05-16 11:18:00,
2013-05-16 07:23:00,67.3,56.4,30.09,North,0,0.0,0.0,68,0.00,,,0.00,VWS V14.01,2013-05-16 11:23:00,
2013-05-16 07:24:00,67.3,56.4,30.09,North,0,0.0,0.0,68,0.00,,,0.00,VWS V14.01,2013-05-16 11:24:00,
2013-05-16 07:25:00,67.3,56.4,30.09,North,0,0.0,0.0,68,0.00,,,0.00,VWS V14.01,2013-05-16 11:25:00,
2013-05-16 07:28:00,67.3,56.0,30.09,North,0,0.0,0.0,67,0.00,,,0.00,VWS V14.01,2013-05-16 11:28:00,
2013-05-16 07:30:00,67.5,56.1,30.09,North,0,0.0,0.0,67,0.00,,,0.00,VWS V14.01,2013-05-16 11:30:00,
2013-05-16 07:32:00,67.5,56.1,30.09,North,0,0.0,0.0,67,0.00,,,0.00,VWS V14.01,2013-05-16 11:32:00,
2013-05-16 07:33:00,67.5,56.1,30.09,North,0,0.0,0.0,67,0.00,,,0.00,VWS V14.01,2013-05-16 11:33:00,
2013-05-16 07:34:00,67.5,56.1,30.09,North,0,0.0,0.0,67,0.00,,,0.00,VWS V14.01,2013-05-16 11:34:00,
2013-05-16 07:37:00,67.6,56.3,30.09,North,0,0.0,0.0,67,0.00,,,0.00,VWS V14.01,2013-05-16 11:37:00,
2013-05-16 07:38:00,67.6,56.3,30.09,North,0,0.0,0.0,67,0.00,,,0.00,VWS V14.01,2013-05-16 11:38:00,
2013-05-16 07:40:00,67.8,56.5,30.09,North,0,0.0,0.0,67,0.00,,,0.00,VWS V14.01,2013-05-16 11:40:00,
2013-05-16 07:41:00,67.8,56.5,30.09,North,0,0.0,0.0,67,0.00,,,0.00,VWS V14.01,2013-05-16 11:41:00,
2013-05-16 07:42:00,67.8,56.5,30.09,North,0,0.0,0.0,67,0.00,,,0.00,VWS V14.01,2013-05-16 11:42:00,
2013-05-16 07:44:00,68.0,56.2,30.09,North,0,0.0,0.0,66,0.00,,,0.00,VWS V14.01,2013-05-16 11:44:00,
2013-05-16 07:47:00,68.0,56.2,30.09,North,0,0.0,0.0,66,0.00,,,0.00,VWS V14.01,2013-05-16 11:47:00,
2013-05-16 07:49:00,68.2,56.4,30.09,North,0,0.0,0.0,66,0.00,,,0.00,VWS V14.01,2013-05-16 11:49:00,
2013-05-16 07:52:00,68.4,56.6,30.09,North,0,0.0,0.0,66,0.00,,,0.00,VWS V14.01,2013-05-16 11:52:00,
2013-05-16 07:55:00,68.4,56.2,30.09,North,0,0.0,0.0,65,0.00,,,0.00,VWS V14.01,2013-05-16 11:55:00,
2013-05-16 07:56:00,68.4,56.2,30.09,North,0,0.0,0.0,65,0.00,,,0.00,VWS V14.01,2013-05-16 11:56:00,
2013-05-16 07:59:00,68.5,56.3,30.12,North,0,0.0,0.0,65,0.00,,,0.00,VWS V14.01,2013-05-16 11:59:00,
2013-05-16 08:00:00,68.5,56.3,30.12,North,0,0.0,0.0,65,0.00,,,0.00,VWS V14.01,2013-05-16 12:00:00,
2013-05-16 08:01:00,68.7,56.5,30.12,North,0,0.0,0.0,65,0.00,,,0.00,VWS V14.01,2013-05-16 12:01:00,
2013-05-16 08:04:00,68.9,56.7,30.12,North,0,0.0,0.0,65,0.00,,,0.00,VWS V14.01,2013-05-16 12:04:00,
2013-05-16 08:05:00,68.9,56.7,30.12,North,0,0.0,0.0,65,0.00,,,0.00,VWS V14.01,2013-05-16 12:05:00,
2013-05-16 08:08:00,68.9,56.2,30.12,North,0,0.0,0.0,64,0.00,,,0.00,VWS V14.01,2013-05-16 12:08:00,
2013-05-16 08:10:00,69.3,56.6,30.12,North,0,0.0,0.0,64,0.00,,,0.00,VWS V14.01,2013-05-16 12:10:00,
2013-05-16 08:11:00,69.3,56.6,30.12,North,0,0.0,0.0,64,0.00,,,0.00,VWS V14.01,2013-05-16 12:11:00,
2013-05-16 08:16:00,69.6,56.5,30.12,North,0,0.0,0.0,63,0.00,,,0.00,VWS V14.01,2013-05-16 12:16:00,
2013-05-16 08:17:00,69.6,56.5,30.12,North,0,0.0,0.0,63,0.00,,,0.00,VWS V14.01,2013-05-16 12:17:00,
2013-05-16 08:18:00,69.6,56.5,30.12,North,0,0.0,0.0,63,0.00,,,0.00,VWS V14.01,2013-05-16 12:18:00,
2013-05-16 08:20:00,69.8,56.2,30.12,North,0,0.0,0.0,62,0.00,,,0.00,VWS V14.01,2013-05-16 12:20:00,
2013-05-16 08:22:00,70.0,56.4,30.12,North,0,0.0,0.0,62,0.00,,,0.00,VWS V14.01,2013-05-16 12:22:00,
2013-05-16 08:24:00,70.2,56.1,30.12,North,0,0.0,0.0,61,0.00,,,0.00,VWS V14.01,2013-05-16 12:24:00,
2013-05-16 08:27:00,70.3,55.8,30.12,North,0,0.0,0.0,60,0.00,,,0.00,VWS V14.01,2013-05-16 12:27:00,
2013-05-16 08:29:00,70.5,56.0,30.12,North,0,0.0,0.0,60,0.00,,,0.00,VWS V14.01,2013-05-16 12:29:00,
2013-05-16 08:30:00,70.5,56.0,30.12,North,0,0.0,0.0,60,0.00,,,0.00,VWS V14.01,2013-05-16 12:30:00,
2013-05-16 08:33:00,70.7,56.2,30.12,North,0,0.0,0.0,60,0.00,,,0.00,VWS V14.01,2013-05-16 12:33:00,
2013-05-16 08:35:00,70.9,55.8,30.12,North,0,0.0,0.0,59,0.00,,,0.00,VWS V14.01,2013-05-16 12:35:00,
2013-05-16 08:36:00,70.9,55.8,30.12,North,0,0.0,0.0,59,0.00,,,0.00,VWS V14.01,2013-05-16 12:36:00,
2013-05-16 08:39:00,71.2,55.7,30.12,North,0,0.0,0.0,58,0.00,,,0.00,VWS V14.01,2013-05-16 12:39:00,
2013-05-16 08:40:00,71.2,55.2,30.12,North,0,0.0,0.0,57,0.00,,,0.00,VWS V14.01,2013-05-16 12:40:00,
2013-05-16 08:42:00,71.2,55.2,30.12,North,0,0.0,0.0,57,0.00,,,0.00,VWS V14.01,2013-05-16 12:42:00,
2013-05-16 08:44:00,71.6,55.1,30.12,North,0,0.0,0.0,56,0.00,,,0.00,VWS V14.01,2013-05-16 12:44:00,
2013-05-16 08:46:00,71.6,54.6,30.12,North,0,0.0,0.0,55,0.00,,,0.00,VWS V14.01,2013-05-16 12:46:00,
2013-05-16 08:49:00,72.0,54.4,30.12,North,0,0.0,0.0,54,0.00,,,0.00,VWS V14.01,2013-05-16 12:49:00,
2013-05-16 08:51:00,72.1,54.1,30.12,North,0,0.0,0.0,53,0.00,,,0.00,VWS V14.01,2013-05-16 12:51:00,
2013-05-16 08:53:00,72.3,54.2,30.12,North,0,0.0,0.0,53,0.00,,,0.00,VWS V14.01,2013-05-16 12:53:00,
2013-05-16 08:56:00,72.7,54.1,30.12,North,0,0.0,0.0,52,0.00,,,0.00,VWS V14.01,2013-05-16 12:56:00,
2013-05-16 08:57:00,72.7,54.1,30.12,North,0,0.0,0.0,52,0.00,,,0.00,VWS V14.01,2013-05-16 12:57:00,
2013-05-16 08:58:00,72.7,54.1,30.12,North,0,0.0,0.0,52,0.00,,,0.00,VWS V14.01,2013-05-16 12:58:00,
2013-05-16 08:59:00,72.9,53.7,30.09,North,0,0.0,0.0,51,0.00,,,0.00,VWS V14.01,2013-05-16 12:59:00,
2013-05-16 09:02:00,73.0,53.9,30.09,North,0,0.0,0.0,51,0.00,,,0.00,VWS V14.01,2013-05-16 13:02:00,
2013-05-16 09:04:00,73.2,54.0,30.09,North,0,0.0,0.0,51,0.00,,,0.00,VWS V14.01,2013-05-16 13:04:00,
2013-05-16 09:05:00,73.2,54.0,30.09,North,0,0.0,0.0,51,0.00,,,0.00,VWS V14.01,2013-05-16 13:05:00,
2013-05-16 09:07:00,73.6,53.8,30.09,North,0,0.0,0.0,50,0.00,,,0.00,VWS V14.01,2013-05-16 13:07:00,
2013-05-16 09:09:00,73.8,53.4,30.09,North,0,0.0,0.0,49,0.00,,,0.00,VWS V14.01,2013-05-16 13:09:00,
2013-05-16 09:11:00,73.9,53.6,30.09,North,0,0.0,0.0,49,0.00,,,0.00,VWS V14.01,2013-05-16 13:11:00,
2013-05-16 09:14:00,74.3,53.4,30.12,North,0,0.0,0.0,48,0.00,,,0.00,VWS V14.01,2013-05-16 13:14:00,
2013-05-16 09:17:00,74.5,53.5,30.12,North,0,0.0,0.0,48,0.00,,,0.00,VWS V14.01,2013-05-16 13:17:00,
2013-05-16 09:20:00,74.8,53.3,30.12,North,0,0.0,0.0,47,0.00,,,0.00,VWS V14.01,2013-05-16 13:20:00,
2013-05-16 09:21:00,74.8,53.3,30.12,North,0,0.0,0.0,47,0.00,,,0.00,VWS V14.01,2013-05-16 13:21:00,
2013-05-16 09:23:00,75.0,52.9,30.12,North,0,0.0,0.0,46,0.00,,,0.00,VWS V14.01,2013-05-16 13:23:00,
2013-05-16 09:24:00,75.2,52.4,30.12,North,0,0.0,0.0,45,0.00,,,0.00,VWS V14.01,2013-05-16 13:24:00,
2013-05-16 09:27:00,75.4,52.6,30.12,North,0,0.0,0.0,45,0.00,,,0.00,VWS V14.01,2013-05-16 13:27:00,
2013-05-16 09:30:00,75.6,52.8,30.12,North,0,0.0,0.0,45,0.00,,,0.00,VWS V14.01,2013-05-16 13:30:00,
2013-05-16 09:32:00,75.7,52.9,30.12,North,0,0.0,0.0,45,0.00,,,0.00,VWS V14.01,2013-05-16 13:32:00,
2013-05-16 09:34:00,75.9,52.5,30.12,North,0,0.0,0.0,44,0.00,,,0.00,VWS V14.01,2013-05-16 13:34:00,
2013-05-16 09:35:00,75.9,52.5,30.12,North,0,0.0,0.0,44,0.00,,,0.00,VWS V14.01,2013-05-16 13:35:00,
2013-05-16 09:36:00,76.1,52.6,30.12,North,0,0.0,0.0,44,0.00,,,0.00,VWS V14.01,2013-05-16 13:36:00,
2013-05-16 09:39:00,76.3,52.8,30.12,North,0,0.0,0.0,44,0.00,,,0.00,VWS V14.01,2013-05-16 13:39:00,
2013-05-16 09:40:00,76.3,52.8,30.12,North,0,0.0,0.0,44,0.00,,,0.00,VWS V14.01,2013-05-16 13:40:00,
2013-05-16 09:41:00,76.5,52.3,30.12,North,0,0.0,0.0,43,0.00,,,0.00,VWS V14.01,2013-05-16 13:41:00,
2013-05-16 09:45:00,76.6,52.5,30.12,North,0,0.0,0.0,43,0.00,,,0.00,VWS V14.01,2013-05-16 13:45:00,
2013-05-16 09:46:00,76.8,52.0,30.12,North,0,0.0,0.0,42,0.00,,,0.00,VWS V14.01,2013-05-16 13:46:00,
2013-05-16 09:47:00,76.8,52.0,30.12,North,0,0.0,0.0,42,0.00,,,0.00,VWS V14.01,2013-05-16 13:47:00,
2013-05-16 09:49:00,76.8,52.0,30.12,North,0,0.0,0.0,42,0.00,,,0.00,VWS V14.01,2013-05-16 13:49:00,
2013-05-16 09:51:00,77.0,52.2,30.12,North,0,0.0,0.0,42,0.00,,,0.00,VWS V14.01,2013-05-16 13:51:00,
2013-05-16 09:52:00,77.0,52.2,30.12,North,0,0.0,0.0,42,0.00,,,0.00,VWS V14.01,2013-05-16 13:52:00,
2013-05-16 09:57:00,77.4,51.8,30.12,North,0,0.0,0.0,41,0.00,,,0.00,VWS V14.01,2013-05-16 13:57:00,
2013-05-16 09:58:00,77.4,51.8,30.12,North,0,0.0,0.0,41,0.00,,,0.00,VWS V14.01,2013-05-16 13:58:00,
2013-05-16 09:59:00,77.4,51.8,30.12,North,0,0.0,0.0,41,0.00,,,0.00,VWS V14.01,2013-05-16 13:59:00,
2013-05-16 10:01:00,77.7,51.5,30.12,North,0,0.0,0.0,40,0.00,,,0.00,VWS V14.01,2013-05-16 14:01:00,
2013-05-16 10:03:00,77.7,51.5,30.12,North,0,0.0,0.0,40,0.00,,,0.00,VWS V14.01,2013-05-16 14:03:00,
2013-05-16 10:06:00,77.9,51.7,30.12,North,0,0.0,0.0,40,0.00,,,0.00,VWS V14.01,2013-05-16 14:06:00,
2013-05-16 10:07:00,77.9,51.7,30.12,North,0,0.0,0.0,40,0.00,,,0.00,VWS V14.01,2013-05-16 14:07:00,
2013-05-16 10:08:00,78.1,51.8,30.12,North,0,0.0,0.0,40,0.00,,,0.00,VWS V14.01,2013-05-16 14:08:00,
2013-05-16 10:11:00,78.3,52.0,30.12,North,0,0.0,0.0,40,0.00,,,0.00,VWS V14.01,2013-05-16 14:11:00,
2013-05-16 10:12:00,78.3,52.0,30.12,North,0,0.0,0.0,40,0.00,,,0.00,VWS V14.01,2013-05-16 14:12:00,
2013-05-16 10:14:00,78.4,52.1,30.12,North,0,0.0,0.0,40,0.00,,,0.00,VWS V14.01,2013-05-16 14:14:00,
2013-05-16 10:16:00,78.6,52.3,30.12,North,0,0.0,0.0,40,0.00,,,0.00,VWS V14.01,2013-05-16 14:16:00,
2013-05-16 10:17:00,78.8,51.8,30.12,North,0,0.0,0.0,39,0.00,,,0.00,VWS V14.01,2013-05-16 14:17:00,
2013-05-16 10:18:00,78.8,51.8,30.12,North,0,0.0,0.0,39,0.00,,,0.00,VWS V14.01,2013-05-16 14:18:00,
2013-05-16 10:20:00,79.0,51.9,30.12,North,0,0.0,0.0,39,0.00,,,0.00,VWS V14.01,2013-05-16 14:20:00,
2013-05-16 10:21:00,79.2,52.1,30.12,North,0,0.0,0.0,39,0.00,,,0.00,VWS V14.01,2013-05-16 14:21:00,
2013-05-16 10:23:00,79.3,51.5,30.12,North,0,0.0,0.0,38,0.00,,,0.00,VWS V14.01,2013-05-16 14:23:00,
2013-05-16 10:24:00,79.3,51.5,30.12,North,0,0.0,0.0,38,0.00,,,0.00,VWS V14.01,2013-05-16 14:24:00,
2013-05-16 10:25:00,79.3,50.8,30.12,North,0,0.0,0.0,37,0.00,,,0.00,VWS V14.01,2013-05-16 14:25:00,
2013-05-16 10:27:00,79.5,51.0,30.12,North,0,0.0,0.0,37,0.00,,,0.00,VWS V14.01,2013-05-16 14:27:00,
2013-05-16 10:29:00,79.7,51.2,30.12,North,0,0.0,0.0,37,0.00,,,0.00,VWS V14.01,2013-05-16 14:29:00,
2013-05-16 10:30:00,79.7,50.4,30.12,North,0,0.0,0.0,36,0.00,,,0.00,VWS V14.01,2013-05-16 14:30:00,
2013-05-16 10:34:00,79.9,50.6,30.12,North,0,0.0,0.0,36,0.00,,,0.00,VWS V14.01,2013-05-16 14:34:00,
2013-05-16 10:36:00,79.9,50.6,30.12,North,0,0.0,0.0,36,0.00,,,0.00,VWS V14.01,2013-05-16 14:36:00,
2013-05-16 10:38:00,80.1,50.7,30.12,North,0,0.0,0.0,36,0.00,,,0.00,VWS V14.01,2013-05-16 14:38:00,
2013-05-16 10:40:00,80.1,50.0,30.12,North,0,0.0,0.0,35,0.00,,,0.00,VWS V14.01,2013-05-16 14:40:00,
2013-05-16 10:43:00,80.2,50.1,30.12,North,0,0.0,0.0,35,0.00,,,0.00,VWS V14.01,2013-05-16 14:43:00,
2013-05-16 10:47:00,80.4,50.3,30.12,North,0,0.0,0.0,35,0.00,,,0.00,VWS V14.01,2013-05-16 14:47:00,
2013-05-16 10:48:00,80.6,49.7,30.12,North,0,0.0,0.0,34,0.00,,,0.00,VWS V14.01,2013-05-16 14:48:00,
2013-05-16 10:50:00,80.6,49.7,30.12,North,0,0.0,0.0,34,0.00,,,0.00,VWS V14.01,2013-05-16 14:50:00,
2013-05-16 10:52:00,80.6,49.7,30.12,North,0,0.0,0.0,34,0.00,,,0.00,VWS V14.01,2013-05-16 14:52:00,
2013-05-16 10:54:00,80.6,49.7,30.12,North,0,0.0,0.0,34,0.00,,,0.00,VWS V14.01,2013-05-16 14:54:00,
2013-05-16 10:55:00,80.8,49.8,30.12,North,0,0.0,0.0,34,0.00,,,0.00,VWS V14.01,2013-05-16 14:55:00,
2013-05-16 10:57:00,80.8,49.8,30.12,North,0,0.0,0.0,34,0.00,,,0.00,VWS V14.01,2013-05-16 14:57:00,
2013-05-16 10:59:00,81.1,49.3,30.12,North,0,0.0,0.0,33,0.00,,,0.00,VWS V14.01,2013-05-16 14:59:00,
2013-05-16 11:01:00,81.1,49.3,30.12,North,0,0.0,0.0,33,0.00,,,0.00,VWS V14.01,2013-05-16 15:01:00,
2013-05-16 11:02:00,81.0,49.2,30.12,North,0,0.0,0.0,33,0.00,,,0.00,VWS V14.01,2013-05-16 15:02:00,
2013-05-16 11:04:00,81.0,49.2,30.12,North,0,0.0,0.0,33,0.00,,,0.00,VWS V14.01,2013-05-16 15:04:00,
2013-05-16 11:06:00,81.0,50.0,30.12,North,0,0.0,0.0,34,0.00,,,0.00,VWS V14.01,2013-05-16 15:06:00,
2013-05-16 11:07:00,81.0,50.0,30.12,North,0,0.0,0.0,34,0.00,,,0.00,VWS V14.01,2013-05-16 15:07:00,
2013-05-16 11:09:00,81.0,50.0,30.12,North,0,0.0,0.0,34,0.00,,,0.00,VWS V14.01,2013-05-16 15:09:00,
2013-05-16 11:11:00,81.0,49.2,30.12,North,0,0.0,0.0,33,0.00,,,0.00,VWS V14.01,2013-05-16 15:11:00,
2013-05-16 11:12:00,81.0,49.2,30.12,North,0,0.0,0.0,33,0.00,,,0.00,VWS V14.01,2013-05-16 15:12:00,
2013-05-16 11:15:00,81.3,49.5,30.12,North,0,0.0,0.0,33,0.00,,,0.00,VWS V14.01,2013-05-16 15:15:00,
2013-05-16 11:17:00,81.3,49.5,30.12,North,0,0.0,0.0,33,0.00,,,0.00,VWS V14.01,2013-05-16 15:17:00,
2013-05-16 11:19:00,81.5,49.7,30.12,North,0,0.0,0.0,33,0.00,,,0.00,VWS V14.01,2013-05-16 15:19:00,
2013-05-16 11:23:00,82.0,50.1,30.12,North,0,0.0,0.0,33,0.00,,,0.00,VWS V14.01,2013-05-16 15:23:00,
2013-05-16 11:25:00,82.4,49.6,30.12,North,0,0.0,0.0,32,0.00,,,0.00,VWS V14.01,2013-05-16 15:25:00,
2013-05-16 11:27:00,82.6,49.8,30.12,North,0,0.0,0.0,32,0.00,,,0.00,VWS V14.01,2013-05-16 15:27:00,
2013-05-16 11:28:00,82.6,49.8,30.12,North,0,0.0,0.0,32,0.00,,,0.00,VWS V14.01,2013-05-16 15:28:00,
2013-05-16 11:29:00,82.8,49.1,30.12,North,0,0.0,0.0,31,0.00,,,0.00,VWS V14.01,2013-05-16 15:29:00,
2013-05-16 11:32:00,82.8,49.1,30.12,North,0,0.0,0.0,31,0.00,,,0.00,VWS V14.01,2013-05-16 15:32:00,
2013-05-16 11:33:00,82.6,48.9,30.12,North,0,0.0,0.0,31,0.00,,,0.00,VWS V14.01,2013-05-16 15:33:00,
2013-05-16 11:35:00,82.4,48.8,30.12,North,0,0.0,0.0,31,0.00,,,0.00,VWS V14.01,2013-05-16 15:35:00,
2013-05-16 11:37:00,82.4,48.8,30.12,North,0,0.0,0.0,31,0.00,,,0.00,VWS V14.01,2013-05-16 15:37:00,
2013-05-16 11:38:00,82.4,49.6,30.12,North,0,0.0,0.0,32,0.00,,,0.00,VWS V14.01,2013-05-16 15:38:00,
2013-05-16 11:39:00,82.4,49.6,30.12,North,0,0.0,0.0,32,0.00,,,0.00,VWS V14.01,2013-05-16 15:39:00,
2013-05-16 11:42:00,82.6,49.8,30.12,North,0,0.0,0.0,32,0.00,,,0.00,VWS V14.01,2013-05-16 15:42:00,
2013-05-16 11:45:00,82.8,49.1,30.12,North,0,0.0,0.0,31,0.00,,,0.00,VWS V14.01,2013-05-16 15:45:00,
2013-05-16 11:47:00,82.9,50.1,30.12,North,0,0.0,0.0,32,0.00,,,0.00,VWS V14.01,2013-05-16 15:47:00,
2013-05-16 11:49:00,83.1,49.4,30.12,North,0,0.0,0.0,31,0.00,,,0.00,VWS V14.01,2013-05-16 15:49:00,
2013-05-16 11:50:00,83.1,49.4,30.12,North,0,0.0,0.0,31,0.00,,,0.00,VWS V14.01,2013-05-16 15:50:00,
2013-05-16 11:51:00,83.3,49.5,30.12,North,0,0.0,0.0,31,0.00,,,0.00,VWS V14.01,2013-05-16 15:51:00,
2013-05-16 11:52:00,83.3,49.5,30.12,North,0,0.0,0.0,31,0.00,,,0.00,VWS V14.01,2013-05-16 15:52:00,
2013-05-16 11:54:00,83.5,49.7,30.12,North,0,0.0,0.0,31,0.00,,,0.00,VWS V14.01,2013-05-16 15:54:00,
2013-05-16 11:56:00,83.7,49.8,30.12,North,0,0.0,0.0,31,0.00,,,0.00,VWS V14.01,2013-05-16 15:56:00,
2013-05-16 11:58:00,83.8,50.0,30.12,North,0,0.0,0.0,31,0.00,,,0.00,VWS V14.01,2013-05-16 15:58:00,
2013-05-16 11:59:00,83.8,50.0,30.12,North,0,0.0,0.0,31,0.00,,,0.00,VWS V14.01,2013-05-16 15:59:00,
2013-05-16 12:00:00,83.8,49.1,30.12,North,0,0.0,0.0,30,0.00,,,0.00,VWS V14.01,2013-05-16 16:00:00,
2013-05-16 12:03:00,84.0,49.3,30.12,North,0,0.0,0.0,30,0.00,,,0.00,VWS V14.01,2013-05-16 16:03:00,
2013-05-16 12:05:00,83.8,49.1,30.12,North,0,0.0,0.0,30,0.00,,,0.00,VWS V14.01,2013-05-16 16:05:00,
2013-05-16 12:06:00,83.7,49.0,30.12,North,0,0.0,0.0,30,0.00,,,0.00,VWS V14.01,2013-05-16 16:06:00,
2013-05-16 12:10:00,83.3,48.7,30.12,North,0,0.0,0.0,30,0.00,,,0.00,VWS V14.01,2013-05-16 16:10:00,
2013-05-16 12:11:00,83.3,48.7,30.12,North,0,0.0,0.0,30,0.00,,,0.00,VWS V14.01,2013-05-16 16:11:00,
2013-05-16 12:12:00,83.3,48.7,30.12,North,0,0.0,0.0,30,0.00,,,0.00,VWS V14.01,2013-05-16 16:12:00,
2013-05-16 12:14:00,83.1,49.4,30.12,North,0,0.0,0.0,31,0.00,,,0.00,VWS V14.01,2013-05-16 16:14:00,
2013-05-16 12:16:00,83.3,49.5,30.12,North,0,0.0,0.0,31,0.00,,,0.00,VWS V14.01,2013-05-16 16:16:00,
2013-05-16 12:18:00,83.3,49.5,30.12,North,0,0.0,0.0,31,0.00,,,0.00,VWS V14.01,2013-05-16 16:18:00,
2013-05-16 12:19:00,83.5,49.7,30.12,North,0,0.0,0.0,31,0.00,,,0.00,VWS V14.01,2013-05-16 16:19:00,
2013-05-16 12:20:00,83.5,49.7,30.12,North,0,0.0,0.0,31,0.00,,,0.00,VWS V14.01,2013-05-16 16:20:00,
2013-05-16 12:23:00,83.7,49.8,30.12,North,0,0.0,0.0,31,0.00,,,0.00,VWS V14.01,2013-05-16 16:23:00,
2013-05-16 12:25:00,83.7,49.8,30.12,North,0,0.0,0.0,31,0.00,,,0.00,VWS V14.01,2013-05-16 16:25:00,
2013-05-16 12:28:00,84.0,49.3,30.12,North,0,0.0,0.0,30,0.00,,,0.00,VWS V14.01,2013-05-16 16:28:00,
2013-05-16 12:29:00,84.0,49.3,30.12,North,0,0.0,0.0,30,0.00,,,0.00,VWS V14.01,2013-05-16 16:29:00,
2013-05-16 12:30:00,84.0,49.3,30.12,North,0,0.0,0.0,30,0.00,,,0.00,VWS V14.01,2013-05-16 16:30:00,
2013-05-16 12:32:00,84.0,49.3,30.12,North,0,0.0,0.0,30,0.00,,,0.00,VWS V14.01,2013-05-16 16:32:00,
2013-05-16 12:35:00,84.2,49.4,30.12,North,0,0.0,0.0,30,0.00,,,0.00,VWS V14.01,2013-05-16 16:35:00,
2013-05-16 12:36:00,84.2,49.4,30.12,North,0,0.0,0.0,30,0.00,,,0.00,VWS V14.01,2013-05-16 16:36:00,
2013-05-16 12:37:00,84.2,49.4,30.12,North,0,0.0,0.0,30,0.00,,,0.00,VWS V14.01,2013-05-16 16:37:00,
2013-05-16 12:38:00,84.2,49.4,30.12,North,0,0.0,0.0,30,0.00,,,0.00,VWS V14.01,2013-05-16 16:38:00,
2013-05-16 12:39:00,84.2,49.4,30.12,North,0,0.0,0.0,30,0.00,,,0.00,VWS V14.01,2013-05-16 16:39:00,
2013-05-16 12:42:00,84.4,49.6,30.12,North,0,0.0,0.0,30,0.00,,FEW035,0.00,VWS V14.01,2013-05-16 16:42:00,
2013-05-16 12:44:00,84.6,49.8,30.12,North,0,0.0,0.0,30,0.00,,FEW035,0.00,VWS V14.01,2013-05-16 16:44:00,
2013-05-16 12:45:00,84.6,48.8,30.12,North,0,0.0,0.0,29,0.00,,FEW035,0.00,VWS V14.01,2013-05-16 16:45:00,
2013-05-16 12:46:00,84.6,48.8,30.12,North,0,0.0,0.0,29,0.00,,FEW035,0.00,VWS V14.01,2013-05-16 16:46:00,
2013-05-16 12:48:00,84.6,48.8,30.12,North,0,0.0,0.0,29,0.00,,FEW035,0.00,VWS V14.01,2013-05-16 16:48:00,
2013-05-16 12:50:00,84.6,48.8,30.12,North,0,0.0,0.0,29,0.00,,FEW035,0.00,VWS V14.01,2013-05-16 16:50:00,
2013-05-16 12:53:00,84.4,48.7,30.12,North,0,0.0,0.0,29,0.00,,FEW035,0.00,VWS V14.01,2013-05-16 16:53:00,
2013-05-16 12:54:00,84.4,48.7,30.12,North,0,0.0,0.0,29,0.00,,FEW035,0.00,VWS V14.01,2013-05-16 16:54:00,
2013-05-16 12:56:00,84.2,49.4,30.12,North,0,0.0,0.0,30,0.00,,FEW035,0.00,VWS V14.01,2013-05-16 16:56:00,
2013-05-16 12:57:00,84.2,49.4,30.12,North,0,0.0,0.0,30,0.00,,FEW035,0.00,VWS V14.01,2013-05-16 16:57:00,
2013-05-16 12:58:00,84.2,49.4,30.12,North,0,0.0,0.0,30,0.00,,FEW035,0.00,VWS V14.01,2013-05-16 16:58:00,
2013-05-16 13:00:00,84.2,49.4,30.12,North,0,0.0,0.0,30,0.00,,FEW035,0.00,VWS V14.01,2013-05-16 17:00:00,
2013-05-16 13:02:00,84.2,48.5,30.12,North,0,0.0,0.0,29,0.00,,SCT055,0.00,VWS V14.01,2013-05-16 17:02:00,
2013-05-16 13:04:00,84.0,49.3,30.12,North,0,0.0,0.0,30,0.00,,SCT055,0.00,VWS V14.01,2013-05-16 17:04:00,
2013-05-16 13:05:00,84.0,49.3,30.12,North,0,0.0,0.0,30,0.00,,SCT055,0.00,VWS V14.01,2013-05-16 17:05:00,
2013-05-16 13:08:00,84.0,49.3,30.12,North,0,0.0,0.0,30,0.00,,SCT055,0.00,VWS V14.01,2013-05-16 17:08:00,
2013-05-16 13:09:00,84.0,49.3,30.12,North,0,0.0,0.0,30,0.00,,SCT055,0.00,VWS V14.01,2013-05-16 17:09:00,
2013-05-16 13:10:00,84.0,49.3,30.12,North,0,0.0,0.0,30,0.00,,SCT055,0.00,VWS V14.01,2013-05-16 17:10:00,
2013-05-16 13:11:00,83.8,49.1,30.12,North,0,0.0,0.0,30,0.00,,SCT055,0.00,VWS V14.01,2013-05-16 17:11:00,
2013-05-16 13:12:00,83.8,49.1,30.12,North,0,0.0,0.0,30,0.00,,SCT055,0.00,VWS V14.01,2013-05-16 17:12:00,
2013-05-16 13:15:00,83.8,49.1,30.09,North,0,0.0,0.0,30,0.00,,SCT055,0.00,VWS V14.01,2013-05-16 17:15:00,
2013-05-16 13:18:00,83.8,49.1,30.09,North,0,0.0,0.0,30,0.00,,SCT055,0.00,VWS V14.01,2013-05-16 17:18:00,
2013-05-16 13:19:00,84.0,49.3,30.09,North,0,0.0,0.0,30,0.00,,SCT055,0.00,VWS V14.01,2013-05-16 17:19:00,
2013-05-16 13:20:00,84.0,49.3,30.09,North,0,0.0,0.0,30,0.00,,SCT055,0.00,VWS V14.01,2013-05-16 17:20:00,
2013-05-16 13:21:00,84.0,50.2,30.09,North,0,0.0,0.0,31,0.00,,SCT055,0.00,VWS V14.01,2013-05-16 17:21:00,
2013-05-16 13:23:00,84.2,49.4,30.09,North,0,0.0,0.0,30,0.00,,SCT055,0.00,VWS V14.01,2013-05-16 17:23:00,
2013-05-16 13:24:00,84.2,49.4,30.09,North,0,0.0,0.0,30,0.00,,SCT055,0.00,VWS V14.01,2013-05-16 17:24:00,
2013-05-16 13:25:00,84.2,49.4,30.09,North,0,0.0,0.0,30,0.00,,SCT055,0.00,VWS V14.01,2013-05-16 17:25:00,
2013-05-16 13:27:00,84.4,48.7,30.09,North,0,0.0,0.0,29,0.00,,SCT055,0.00,VWS V14.01,2013-05-16 17:27:00,
2013-05-16 13:31:00,84.6,48.8,30.09,North,0,0.0,0.0,29,0.00,,SCT055,0.00,VWS V14.01,2013-05-16 17:31:00,
2013-05-16 13:33:00,84.7,49.0,30.09,North,0,0.0,0.0,29,0.00,,SCT055,0.00,VWS V14.01,2013-05-16 17:33:00,
2013-05-16 13:34:00,84.7,49.0,30.09,North,0,0.0,0.0,29,0.00,,SCT055,0.00,VWS V14.01,2013-05-16 17:34:00,
2013-05-16 13:36:00,84.7,49.0,30.09,North,0,0.0,0.0,29,0.00,,SCT055,0.00,VWS V14.01,2013-05-16 17:36:00,
2013-05-16 13:39:00,84.7,49.0,30.09,North,0,0.0,0.0,29,0.00,,SCT055,0.00,VWS V14.01,2013-05-16 17:39:00,
2013-05-16 13:40:00,85.8,49.9,30.09,North,0,0.0,0.0,29,0.00,,SCT055,0.00,VWS V14.01,2013-05-16 17:40:00,
2013-05-16 13:45:00,86.4,49.4,30.09,North,0,0.0,0.0,28,0.00,,SCT055,0.00,VWS V14.01,2013-05-16 17:45:00,
2013-05-16 13:47:00,86.4,49.4,30.09,North,0,0.0,0.0,28,0.00,,SCT055,0.00,VWS V14.01,2013-05-16 17:47:00,
2013-05-16 13:51:00,86.5,49.6,30.09,North,0,0.0,0.0,28,0.00,,SCT055,0.00,VWS V14.01,2013-05-16 17:51:00,
2013-05-16 13:52:00,86.5,49.6,30.09,North,0,0.0,0.0,28,0.00,,SCT055,0.00,VWS V14.01,2013-05-16 17:52:00,
2013-05-16 13:53:00,86.5,49.6,30.09,North,0,0.0,0.0,28,0.00,,SCT055,0.00,VWS V14.01,2013-05-16 17:53:00,
2013-05-16 13:54:00,86.7,49.8,30.09,North,0,0.0,0.0,28,0.00,,SCT055,0.00,VWS V14.01,2013-05-16 17:54:00,
2013-05-16 13:55:00,86.7,49.8,30.09,North,0,0.0,0.0,28,0.00,,SCT055,0.00,VWS V14.01,2013-05-16 17:55:00,
2013-05-16 13:59:00,87.1,50.1,30.09,North,0,0.0,0.0,28,0.00,,SCT055,0.00,VWS V14.01,2013-05-16 17:59:00,
2013-05-16 14:00:00,87.3,50.2,30.09,North,0,0.0,0.0,28,0.00,,SCT055,0.00,VWS V14.01,2013-05-16 18:00:00,
2013-05-16 14:01:00,87.3,49.2,30.09,North,0,0.0,0.0,27,0.00,,SCT055,0.00,VWS V14.01,2013-05-16 18:01:00,
2013-05-16 14:04:00,87.6,49.5,30.09,North,0,0.0,0.0,27,0.00,,SCT055,0.00,VWS V14.01,2013-05-16 18:04:00,
2013-05-16 14:05:00,87.6,49.5,30.09,North,0,0.0,0.0,27,0.00,,SCT055,0.00,VWS V14.01,2013-05-16 18:05:00,
2013-05-16 14:07:00,88.0,48.8,30.09,North,0,0.0,0.0,26,0.00,,SCT055,0.00,VWS V14.01,2013-05-16 18:07:00,
2013-05-16 14:10:00,88.3,48.1,30.09,North,0,0.0,0.0,25,0.00,,SCT055,0.00,VWS V14.01,2013-05-16 18:10:00,
2013-05-16 14:11:00,88.3,48.1,30.09,North,0,0.0,0.0,25,0.00,,SCT055,0.00,VWS V14.01,2013-05-16 18:11:00,
2013-05-16 14:12:00,88.9,47.5,30.09,North,0,0.0,0.0,24,0.00,,SCT055,0.00,VWS V14.01,2013-05-16 18:12:00,
2013-05-16 14:14:00,89.2,47.8,30.09,North,0,0.0,0.0,24,0.00,,SCT055,0.00,VWS V14.01,2013-05-16 18:14:00,
2013-05-16 14:17:00,90.0,47.2,30.09,North,0,0.0,0.0,23,0.00,,SCT055,0.00,VWS V14.01,2013-05-16 18:17:00,
2013-05-16 14:18:00,90.1,46.2,30.09,North,0,0.0,0.0,22,0.00,,SCT055,0.00,VWS V14.01,2013-05-16 18:18:00,
2013-05-16 14:20:00,90.3,46.3,30.09,North,0,0.0,0.0,22,0.00,,SCT055,0.00,VWS V14.01,2013-05-16 18:20:00,
2013-05-16 14:21:00,90.5,46.5,30.09,North,0,0.0,0.0,22,0.00,,SCT055,0.00,VWS V14.01,2013-05-16 18:21:00,
2013-05-16 14:23:00,90.7,46.7,30.09,North,0,0.0,0.0,22,0.00,,SCT055,0.00,VWS V14.01,2013-05-16 18:23:00,
2013-05-16 14:25:00,90.9,46.8,30.09,North,0,0.0,0.0,22,0.00,,SCT055,0.00,VWS V14.01,2013-05-16 18:25:00,
2013-05-16 14:26:00,90.9,45.6,30.09,North,0,0.0,0.0,21,0.00,,SCT055,0.00,VWS V14.01,2013-05-16 18:26:00,
2013-05-16 14:28:00,90.9,45.6,30.09,North,0,0.0,0.0,21,0.00,,SCT055,0.00,VWS V14.01,2013-05-16 18:28:00,
2013-05-16 14:31:00,90.7,45.4,30.09,North,0,0.0,0.0,21,0.00,,SCT055,0.00,VWS V14.01,2013-05-16 18:31:00,
2013-05-16 14:32:00,90.7,45.4,30.09,North,0,0.0,0.0,21,0.00,,SCT055,0.00,VWS V14.01,2013-05-16 18:32:00,
2013-05-16 14:33:00,90.5,45.3,30.09,North,0,0.0,0.0,21,0.00,,SCT055,0.00,VWS V14.01,2013-05-16 18:33:00,
2013-05-16 14:34:00,90.3,45.1,30.09,North,0,0.0,0.0,21,0.00,,SCT055,0.00,VWS V14.01,2013-05-16 18:34:00,
2013-05-16 14:37:00,90.0,44.8,30.09,North,0,0.0,0.0,21,0.00,,SCT055,0.00,VWS V14.01,2013-05-16 18:37:00,
2013-05-16 14:38:00,89.8,44.7,30.09,North,0,0.0,0.0,21,0.00,,SCT055,0.00,VWS V14.01,2013-05-16 18:38:00,
2013-05-16 14:43:00,89.2,45.5,30.06,North,0,0.0,0.0,22,0.00,,SCT055,0.00,VWS V14.01,2013-05-16 18:43:00,
2013-05-16 14:44:00,89.1,45.3,30.06,North,0,0.0,0.0,22,0.00,,SCT055,0.00,VWS V14.01,2013-05-16 18:44:00,
2013-05-16 14:45:00,89.1,45.3,30.06,North,0,0.0,0.0,22,0.00,,SCT055,0.00,VWS V14.01,2013-05-16 18:45:00,
2013-05-16 14:47:00,88.7,45.0,30.06,North,0,0.0,0.0,22,0.00,,SCT055,0.00,VWS V14.01,2013-05-16 18:47:00,
2013-05-16 14:49:00,88.7,45.0,30.06,North,0,0.0,0.0,22,0.00,,SCT055,0.00,VWS V14.01,2013-05-16 18:49:00,
2013-05-16 14:51:00,88.7,45.0,30.06,North,0,0.0,0.0,22,0.00,,SCT055,0.00,VWS V14.01,2013-05-16 18:51:00,
2013-05-16 14:52:00,88.7,45.0,30.06,North,0,0.0,0.0,22,0.00,,SCT055,0.00,VWS V14.01,2013-05-16 18:52:00,
2013-05-16 14:55:00,88.9,45.2,30.06,North,0,0.0,0.0,22,0.00,,SCT055,0.00,VWS V14.01,2013-05-16 18:55:00,
2013-05-16 14:56:00,89.1,45.3,30.06,North,0,0.0,0.0,22,0.00,,SCT055,0.00,VWS V14.01,2013-05-16 18:56:00,
2013-05-16 14:59:00,89.2,45.5,30.06,North,0,0.0,0.0,22,0.00,,SCT055,0.00,VWS V14.01,2013-05-16 18:59:00,
2013-05-16 15:01:00,89.6,45.8,30.06,North,0,0.0,0.0,22,0.00,,SCT055,0.00,VWS V14.01,2013-05-16 19:01:00,
2013-05-16 15:03:00,89.8,45.9,30.06,North,0,0.0,0.0,22,0.00,,SCT055,0.00,VWS V14.01,2013-05-16 19:03:00,
2013-05-16 15:04:00,89.8,45.9,30.06,North,0,0.0,0.0,22,0.00,,SCT055,0.00,VWS V14.01,2013-05-16 19:04:00,
2013-05-16 15:05:00,90.1,45.0,30.06,North,0,0.0,0.0,21,0.00,,SCT055,0.00,VWS V14.01,2013-05-16 19:05:00,
2013-05-16 15:06:00,90.1,45.0,30.06,North,0,0.0,0.0,21,0.00,,SCT055,0.00,VWS V14.01,2013-05-16 19:06:00,
2013-05-16 15:09:00,90.5,45.3,30.06,North,0,0.0,0.0,21,0.00,,SCT055,0.00,VWS V14.01,2013-05-16 19:09:00,
2013-05-16 15:11:00,90.7,45.4,30.06,North,0,0.0,0.0,21,0.00,,SCT055,0.00,VWS V14.01,2013-05-16 19:11:00,
2013-05-16 15:12:00,90.9,45.6,30.06,North,0,0.0,0.0,21,0.00,,SCT055,0.00,VWS V14.01,2013-05-16 19:12:00,
2013-05-16 15:13:00,90.9,45.6,30.06,North,0,0.0,0.0,21,0.00,,SCT055,0.00,VWS V14.01,2013-05-16 19:13:00,
2013-05-16 15:16:00,91.0,45.7,30.06,North,0,0.0,0.0,21,0.00,,SCT055,0.00,VWS V14.01,2013-05-16 19:16:00,
2013-05-16 15:18:00,91.0,45.7,30.06,North,0,0.0,0.0,21,0.00,,SCT055,0.00,VWS V14.01,2013-05-16 19:18:00,
2013-05-16 15:19:00,91.2,45.9,30.06,North,0,0.0,0.0,21,0.00,,SCT055,0.00,VWS V14.01,2013-05-16 19:19:00,
2013-05-16 15:20:00,91.2,45.9,30.06,North,0,0.0,0.0,21,0.00,,SCT055,0.00,VWS V14.01,2013-05-16 19:20:00,
2013-05-16 15:23:00,91.0,44.4,30.06,North,0,0.0,0.0,20,0.00,,SCT055,0.00,VWS V14.01,2013-05-16 19:23:00,
2013-05-16 15:25:00,90.9,44.3,30.06,North,0,0.0,0.0,20,0.00,,SCT055,0.00,VWS V14.01,2013-05-16 19:25:00,
2013-05-16 15:26:00,90.9,44.3,30.06,North,0,0.0,0.0,20,0.00,,SCT055,0.00,VWS V14.01,2013-05-16 19:26:00,
2013-05-16 15:28:00,90.5,45.3,30.06,North,0,0.0,0.0,21,0.00,,SCT055,0.00,VWS V14.01,2013-05-16 19:28:00,
2013-05-16 15:30:00,90.3,46.3,30.06,North,0,0.0,0.0,22,0.00,,SCT055,0.00,VWS V14.01,2013-05-16 19:30:00,
2013-05-16 15:34:00,90.0,49.5,30.06,North,0,0.0,0.0,25,0.00,,SCT055,0.00,VWS V14.01,2013-05-16 19:34:00,
2013-05-16 15:35:00,90.0,49.5,30.06,North,0,0.0,0.0,25,0.00,,SCT055,0.00,VWS V14.01,2013-05-16 19:35:00,
2013-05-16 15:36:00,89.8,49.3,30.06,North,0,0.0,0.0,25,0.00,,SCT055,0.00,VWS V14.01,2013-05-16 19:36:00,
2013-05-16 15:37:00,89.8,50.4,30.06,North,0,0.0,0.0,26,0.00,,SCT055,0.00,VWS V14.01,2013-05-16 19:37:00,
2013-05-16 15:39:00,89.6,51.2,30.06,North,0,0.0,0.0,27,0.00,,SCT055,0.00,VWS V14.01,2013-05-16 19:39:00,
2013-05-16 15:40:00,89.6,51.2,30.06,North,0,0.0,0.0,27,0.00,,SCT055,0.00,VWS V14.01,2013-05-16 19:40:00,
2013-05-16 15:42:00,89.4,51.1,30.06,North,0,0.0,0.0,27,0.00,,SCT055,0.00,VWS V14.01,2013-05-16 19:42:00,
2013-05-16 15:45:00,89.1,49.8,30.06,North,0,0.0,0.0,26,0.00,,SCT055,0.00,VWS V14.01,2013-05-16 19:45:00,
2013-05-16 15:47:00,89.1,50.8,30.06,North,0,0.0,0.0,27,0.00,,SCT055,0.00,VWS V14.01,2013-05-16 19:47:00,
2013-05-16 15:48:00,88.9,49.6,30.06,North,0,0.0,0.0,26,0.00,,SCT055,0.00,VWS V14.01,2013-05-16 19:48:00,
2013-05-16 15:51:00,88.7,48.4,30.06,North,0,0.0,0.0,25,0.00,,SCT055,0.00,VWS V14.01,2013-05-16 19:51:00,
2013-05-16 15:54:00,88.7,48.4,30.06,North,0,0.0,0.0,25,0.00,,SCT055,0.00,VWS V14.01,2013-05-16 19:54:00,
2013-05-16 15:55:00,88.5,49.3,30.06,North,0,0.0,0.0,26,0.00,,SCT055,0.00,VWS V14.01,2013-05-16 19:55:00,
2013-05-16 15:59:00,88.3,51.1,30.06,North,0,0.0,0.0,28,0.00,,SCT055,0.00,VWS V14.01,2013-05-16 19:59:00,
2013-05-16 16:00:00,88.2,51.0,30.06,North,0,0.0,0.0,28,0.00,,SCT055,0.00,VWS V14.01,2013-05-16 20:00:00,
2013-05-16 16:02:00,88.0,49.8,30.06,North,0,0.0,0.0,27,0.00,,SCT055,0.00,VWS V14.01,2013-05-16 20:02:00,
2013-05-16 16:04:00,88.0,49.8,30.06,North,0,0.0,0.0,27,0.00,,SCT055,0.00,VWS V14.01,2013-05-16 20:04:00,
2013-05-16 16:05:00,87.8,48.7,30.06,North,0,0.0,0.0,26,0.00,,SCT055,0.00,VWS V14.01,2013-05-16 20:05:00,
2013-05-16 16:07:00,87.8,48.7,30.06,North,0,0.0,0.0,26,0.00,,SCT055,0.00,VWS V14.01,2013-05-16 20:07:00,
2013-05-16 16:08:00,88.0,50.8,30.06,North,0,0.0,0.0,28,0.00,,SCT055,0.00,VWS V14.01,2013-05-16 20:08:00,
2013-05-16 16:09:00,88.0,49.8,30.06,North,0,0.0,0.0,27,0.00,,SCT055,0.00,VWS V14.01,2013-05-16 20:09:00,
2013-05-16 16:14:00,88.2,49.0,30.06,North,0,0.0,0.0,26,0.00,,SCT055,0.00,VWS V14.01,2013-05-16 20:14:00,
2013-05-16 16:15:00,88.2,49.0,30.06,North,0,0.0,0.0,26,0.00,,SCT055,0.00,VWS V14.01,2013-05-16 20:15:00,
2013-05-16 16:17:00,88.2,50.0,30.06,North,0,0.0,0.0,27,0.00,,SCT055,0.00,VWS V14.01,2013-05-16 20:17:00,
2013-05-16 16:18:00,88.2,50.0,30.06,North,0,0.0,0.0,27,0.00,,SCT055,0.00,VWS V14.01,2013-05-16 20:18:00,
2013-05-16 16:20:00,88.2,49.0,30.06,North,0,0.0,0.0,26,0.00,,SCT055,0.00,VWS V14.01,2013-05-16 20:20:00,
2013-05-16 16:22:00,88.0,49.8,30.06,North,0,0.0,0.0,27,0.00,,SCT055,0.00,VWS V14.01,2013-05-16 20:22:00,
2013-05-16 16:24:00,88.0,49.8,30.06,North,0,0.0,0.0,27,0.00,,SCT055,0.00,VWS V14.01,2013-05-16 20:24:00,
2013-05-16 16:25:00,88.0,48.8,30.06,North,0,0.0,0.0,26,0.00,,SCT055,0.00,VWS V14.01,2013-05-16 20:25:00,
2013-05-16 16:28:00,88.0,48.8,30.06,North,0,0.0,0.0,26,0.00,,SCT055,0.00,VWS V14.01,2013-05-16 20:28:00,
2013-05-16 16:29:00,88.2,47.9,30.06,North,0,0.0,0.0,25,0.00,,SCT055,0.00,VWS V14.01,2013-05-16 20:29:00,
2013-05-16 16:30:00,88.2,49.0,30.06,North,0,0.0,0.0,26,0.00,,SCT055,0.00,VWS V14.01,2013-05-16 20:30:00,
2013-05-16 16:31:00,88.2,49.0,30.06,North,0,0.0,0.0,26,0.00,,SCT055,0.00,VWS V14.01,2013-05-16 20:31:00,
2013-05-16 16:33:00,88.5,50.3,30.06,North,0,0.0,0.0,27,0.00,,SCT055,0.00,VWS V14.01,2013-05-16 20:33:00,
2013-05-16 16:36:00,88.7,48.4,30.06,North,0,0.0,0.0,25,0.00,,SCT055,0.00,VWS V14.01,2013-05-16 20:36:00,
2013-05-16 16:37:00,88.9,48.5,30.06,North,0,0.0,0.0,25,0.00,,SCT055,0.00,VWS V14.01,2013-05-16 20:37:00,
2013-05-16 16:38:00,89.1,48.7,30.06,North,0,0.0,0.0,25,0.00,,SCT055,0.00,VWS V14.01,2013-05-16 20:38:00,
2013-05-16 16:41:00,89.1,49.8,30.06,North,0,0.0,0.0,26,0.00,,SCT055,0.00,VWS V14.01,2013-05-16 20:41:00,
2013-05-16 16:42:00,89.1,48.7,30.06,North,0,0.0,0.0,25,0.00,,SCT055,0.00,VWS V14.01,2013-05-16 20:42:00,
2013-05-16 16:44:00,89.1,48.7,30.03,North,0,0.0,0.0,25,0.00,,SCT055,0.00,VWS V14.01,2013-05-16 20:44:00,
2013-05-16 16:45:00,89.1,48.7,30.03,North,0,0.0,0.0,25,0.00,,SCT055,0.00,VWS V14.01,2013-05-16 20:45:00,
2013-05-16 16:48:00,89.1,48.7,30.03,North,0,0.0,0.0,25,0.00,,SCT055,0.00,VWS V14.01,2013-05-16 20:48:00,
2013-05-16 16:49:00,89.1,48.7,30.03,North,0,0.0,0.0,25,0.00,,SCT055,0.00,VWS V14.01,2013-05-16 20:49:00,
2013-05-16 16:51:00,89.2,47.8,30.03,North,0,0.0,0.0,24,0.00,,SCT055,0.00,VWS V14.01,2013-05-16 20:51:00,
2013-05-16 16:52:00,89.2,47.8,30.03,North,0,0.0,0.0,24,0.00,,SCT055,0.00,VWS V14.01,2013-05-16 20:52:00,
2013-05-16 16:53:00,89.2,47.8,30.03,North,0,0.0,0.0,24,0.00,,SCT055,0.00,VWS V14.01,2013-05-16 20:53:00,
2013-05-16 16:54:00,89.2,48.8,30.03,North,0,0.0,0.0,25,0.00,,SCT055,0.00,VWS V14.01,2013-05-16 20:54:00,
2013-05-16 16:57:00,89.2,48.8,30.03,North,0,0.0,0.0,25,0.00,,SCT055,0.00,VWS V14.01,2013-05-16 20:57:00,
2013-05-16 16:58:00,89.2,48.8,30.03,North,0,0.0,0.0,25,0.00,,SCT055,0.00,VWS V14.01,2013-05-16 20:58:00,
2013-05-16 16:59:00,89.2,48.8,30.03,North,0,0.0,0.0,25,0.00,,SCT055,0.00,VWS V14.01,2013-05-16 20:59:00,
2013-05-16 17:03:00,89.1,48.7,30.03,North,0,0.0,0.0,25,0.00,,SCT055,0.00,VWS V14.01,2013-05-16 21:03:00,
2013-05-16 17:05:00,88.9,48.5,30.03,North,0,0.0,0.0,25,0.00,,SCT055,0.00,VWS V14.01,2013-05-16 21:05:00,
2013-05-16 17:08:00,88.7,47.3,30.03,North,0,0.0,0.0,24,0.00,,SCT055,0.00,VWS V14.01,2013-05-16 21:08:00,
2013-05-16 17:10:00,88.7,47.3,30.03,North,0,0.0,0.0,24,0.00,,SCT055,0.00,VWS V14.01,2013-05-16 21:10:00,
2013-05-16 17:13:00,88.7,47.3,30.03,North,0,0.0,0.0,24,0.00,,SCT055,0.00,VWS V14.01,2013-05-16 21:13:00,
2013-05-16 17:15:00,88.7,47.3,30.03,North,0,0.0,0.0,24,0.00,,SCT055,0.00,VWS V14.01,2013-05-16 21:15:00,
2013-05-16 17:16:00,88.7,47.3,30.03,North,0,0.0,0.0,24,0.00,,SCT055,0.00,VWS V14.01,2013-05-16 21:16:00,
2013-05-16 17:18:00,88.2,47.9,30.03,North,0,0.0,0.0,25,0.00,,SCT055,0.00,VWS V14.01,2013-05-16 21:18:00,
2013-05-16 17:19:00,88.2,47.9,30.03,North,0,0.0,0.0,25,0.00,,SCT055,0.00,VWS V14.01,2013-05-16 21:19:00,
2013-05-16 17:20:00,88.2,47.9,30.03,North,0,0.0,0.0,25,0.00,,SCT055,0.00,VWS V14.01,2013-05-16 21:20:00,
2013-05-16 17:22:00,88.2,47.9,30.03,North,0,0.0,0.0,25,0.00,,SCT055,0.00,VWS V14.01,2013-05-16 21:22:00,
2013-05-16 17:24:00,88.2,47.9,30.03,North,0,0.0,0.0,25,0.00,,SCT055,0.00,VWS V14.01,2013-05-16 21:24:00,
2013-05-16 17:27:00,88.2,47.9,30.03,North,0,0.0,0.0,25,0.00,,SCT055,0.00,VWS V14.01,2013-05-16 21:27:00,
2013-05-16 17:29:00,88.7,47.3,30.03,North,0,0.0,0.0,24,0.00,,SCT055,0.00,VWS V14.01,2013-05-16 21:29:00,
2013-05-16 17:30:00,88.9,47.5,30.03,North,0,0.0,0.0,24,0.00,,SCT055,0.00,VWS V14.01,2013-05-16 21:30:00,
2013-05-16 17:31:00,88.9,47.5,30.03,North,0,0.0,0.0,24,0.00,,SCT055,0.00,VWS V14.01,2013-05-16 21:31:00,
2013-05-16 17:32:00,89.1,49.8,30.03,North,0,0.0,0.0,26,0.00,,SCT055,0.00,VWS V14.01,2013-05-16 21:32:00,
2013-05-16 17:34:00,88.7,49.5,30.03,North,0,0.0,0.0,26,0.00,,SCT055,0.00,VWS V14.01,2013-05-16 21:34:00,
2013-05-16 17:36:00,88.0,48.8,30.03,North,0,0.0,0.0,26,0.00,,SCT055,0.00,VWS V14.01,2013-05-16 21:36:00,
2013-05-16 17:38:00,87.4,50.4,30.03,North,0,0.0,0.0,28,0.00,,SCT055,0.00,VWS V14.01,2013-05-16 21:38:00,
2013-05-16 17:39:00,87.4,50.4,30.03,North,0,0.0,0.0,28,0.00,,SCT055,0.00,VWS V14.01,2013-05-16 21:39:00,
2013-05-16 17:41:00,86.7,49.8,30.03,North,0,0.0,0.0,28,0.00,,SCT055,0.00,VWS V14.01,2013-05-16 21:41:00,
2013-05-16 17:44:00,86.0,50.1,30.03,North,0,0.0,0.0,29,0.00,,SCT055,0.00,VWS V14.01,2013-05-16 21:44:00,
2013-05-16 17:45:00,85.8,50.8,30.03,North,0,0.0,0.0,30,0.00,,SCT055,0.00,VWS V14.01,2013-05-16 21:45:00,
2013-05-16 17:49:00,85.1,50.2,30.03,North,0,0.0,0.0,30,0.00,,SCT055,0.00,VWS V14.01,2013-05-16 21:49:00,
2013-05-16 17:50:00,85.1,50.2,30.03,North,0,0.0,0.0,30,0.00,,SCT055,0.00,VWS V14.01,2013-05-16 21:50:00,
2013-05-16 17:51:00,84.9,50.1,30.03,North,0,0.0,0.0,30,0.00,,SCT055,0.00,VWS V14.01,2013-05-16 21:51:00,
2013-05-16 17:52:00,84.9,50.1,30.03,North,0,0.0,0.0,30,0.00,,SCT055,0.00,VWS V14.01,2013-05-16 21:52:00,
2013-05-16 17:55:00,84.7,49.9,30.03,North,0,0.0,0.0,30,0.00,,SCT055,0.00,VWS V14.01,2013-05-16 21:55:00,
2013-05-16 17:56:00,84.6,49.8,30.03,North,0,0.0,0.0,30,0.00,,SCT055,0.00,VWS V14.01,2013-05-16 21:56:00,
2013-05-16 18:00:00,84.2,49.4,30.03,North,0,0.0,0.0,30,0.00,,SCT055,0.00,VWS V14.01,2013-05-16 22:00:00,
2013-05-16 18:01:00,84.0,50.2,30.03,North,0,0.0,0.0,31,0.00,,SCT055,0.00,VWS V14.01,2013-05-16 22:01:00,
2013-05-16 18:02:00,84.0,50.2,30.03,North,0,0.0,0.0,31,0.00,,SCT055,0.00,VWS V14.01,2013-05-16 22:02:00,
2013-05-16 18:05:00,83.8,50.9,30.03,North,0,0.0,0.0,32,0.00,,SCT055,0.00,VWS V14.01,2013-05-16 22:05:00,
2013-05-16 18:06:00,83.8,50.9,30.03,North,0,0.0,0.0,32,0.00,,SCT055,0.00,VWS V14.01,2013-05-16 22:06:00,
2013-05-16 18:07:00,83.8,50.0,30.03,North,0,0.0,0.0,31,0.00,,SCT055,0.00,VWS V14.01,2013-05-16 22:07:00,
2013-05-16 18:10:00,83.8,50.9,30.03,North,0,0.0,0.0,32,0.00,,SCT055,0.00,VWS V14.01,2013-05-16 22:10:00,
2013-05-16 18:11:00,83.8,50.9,30.03,North,0,0.0,0.0,32,0.00,,SCT055,0.00,VWS V14.01,2013-05-16 22:11:00,
2013-05-16 18:13:00,83.8,50.9,30.03,North,0,0.0,0.0,32,0.00,,SCT055,0.00,VWS V14.01,2013-05-16 22:13:00,
2013-05-16 18:16:00,83.8,50.9,30.03,North,0,0.0,0.0,32,0.00,,SCT055,0.00,VWS V14.01,2013-05-16 22:16:00,
2013-05-16 18:19:00,83.8,50.9,30.03,North,0,0.0,0.0,32,0.00,,SCT055,0.00,VWS V14.01,2013-05-16 22:19:00,
2013-05-16 18:20:00,83.8,50.9,30.03,North,0,0.0,0.0,32,0.00,,SCT055,0.00,VWS V14.01,2013-05-16 22:20:00,
2013-05-16 18:21:00,83.8,50.9,30.03,North,0,0.0,0.0,32,0.00,,SCT055,0.00,VWS V14.01,2013-05-16 22:21:00,
2013-05-16 18:22:00,83.8,51.7,30.03,North,0,0.0,0.0,33,0.00,,SCT055,0.00,VWS V14.01,2013-05-16 22:22:00,
2013-05-16 18:26:00,83.7,51.5,30.03,North,0,0.0,0.0,33,0.00,,SCT055,0.00,VWS V14.01,2013-05-16 22:26:00,
2013-05-16 18:28:00,83.7,51.5,30.03,North,0,0.0,0.0,33,0.00,,SCT055,0.00,VWS V14.01,2013-05-16 22:28:00,
2013-05-16 18:30:00,83.7,51.5,30.03,North,0,0.0,0.0,33,0.00,,SCT055,0.00,VWS V14.01,2013-05-16 22:30:00,
2013-05-16 18:31:00,83.7,51.5,30.03,North,0,0.0,0.0,33,0.00,,SCT055,0.00,VWS V14.01,2013-05-16 22:31:00,
2013-05-16 18:33:00,83.5,51.4,30.03,North,0,0.0,0.0,33,0.00,,SCT055,0.00,VWS V14.01,2013-05-16 22:33:00,
2013-05-16 18:34:00,83.5,51.4,30.03,North,0,0.0,0.0,33,0.00,,SCT055,0.00,VWS V14.01,2013-05-16 22:34:00,
2013-05-16 18:36:00,83.5,51.4,30.03,North,0,0.0,0.0,33,0.00,,SCT055,0.00,VWS V14.01,2013-05-16 22:36:00,
2013-05-16 18:40:00,83.3,52.0,30.03,North,0,0.0,0.0,34,0.00,,SCT055,0.00,VWS V14.01,2013-05-16 22:40:00,
2013-05-16 18:41:00,83.3,52.8,30.03,North,0,0.0,0.0,35,0.00,,SCT055,0.00,VWS V14.01,2013-05-16 22:41:00,
2013-05-16 18:43:00,83.3,52.8,30.03,North,0,0.0,0.0,35,0.00,,SCT055,0.00,VWS V14.01,2013-05-16 22:43:00,
2013-05-16 18:45:00,83.1,52.7,30.03,North,0,0.0,0.0,35,0.00,,SCT055,0.00,VWS V14.01,2013-05-16 22:45:00,
2013-05-16 18:46:00,83.1,53.4,30.03,North,0,0.0,0.0,36,0.00,,SCT055,0.00,VWS V14.01,2013-05-16 22:46:00,
2013-05-16 18:48:00,83.1,52.7,30.03,North,0,0.0,0.0,35,0.00,,SCT055,0.00,VWS V14.01,2013-05-16 22:48:00,
2013-05-16 18:49:00,83.1,52.7,30.03,North,0,0.0,0.0,35,0.00,,SCT055,0.00,VWS V14.01,2013-05-16 22:49:00,
2013-05-16 18:51:00,82.9,52.5,30.03,North,0,0.0,0.0,35,0.00,,SCT055,0.00,VWS V14.01,2013-05-16 22:51:00,
2013-05-16 18:52:00,82.9,52.5,30.03,North,0,0.0,0.0,35,0.00,,SCT055,0.00,VWS V14.01,2013-05-16 22:52:00,
2013-05-16 18:55:00,82.8,53.1,30.03,North,0,0.0,0.0,36,0.00,,SCT055,0.00,VWS V14.01,2013-05-16 22:55:00,
2013-05-16 18:56:00,82.8,53.1,30.03,North,0,0.0,0.0,36,0.00,,SCT055,0.00,VWS V14.01,2013-05-16 22:56:00,
2013-05-16 18:57:00,82.8,53.1,30.03,North,0,0.0,0.0,36,0.00,,SCT055,0.00,VWS V14.01,2013-05-16 22:57:00,
2013-05-16 18:58:00,82.8,53.1,30.03,North,0,0.0,0.0,36,0.00,,SCT055,0.00,VWS V14.01,2013-05-16 22:58:00,
2013-05-16 19:00:00,82.8,53.1,30.03,North,0,0.0,0.0,36,0.00,,SCT055,0.00,VWS V14.01,2013-05-16 23:00:00,
2013-05-16 19:03:00,82.8,53.1,30.03,North,0,0.0,0.0,36,0.00,,SCT055,0.00,VWS V14.01,2013-05-16 23:03:00,
2013-05-16 19:04:00,82.8,53.1,30.03,North,0,0.0,0.0,36,0.00,,SCT055,0.00,VWS V14.01,2013-05-16 23:04:00,
2013-05-16 19:07:00,82.8,53.1,30.03,North,0,0.0,0.0,36,0.00,,SCT055,0.00,VWS V14.01,2013-05-16 23:07:00,
2013-05-16 19:09:00,82.8,53.1,30.03,North,0,0.0,0.0,36,0.00,,SCT055,0.00,VWS V14.01,2013-05-16 23:09:00,
2013-05-16 19:10:00,82.8,53.1,30.03,North,0,0.0,0.0,36,0.00,,SCT055,0.00,VWS V14.01,2013-05-16 23:10:00,
2013-05-16 19:13:00,82.6,53.7,30.03,North,0,0.0,0.0,37,0.00,,SCT055,0.00,VWS V14.01,2013-05-16 23:13:00,
2013-05-16 19:14:00,82.6,53.7,30.03,North,0,0.0,0.0,37,0.00,,SCT055,0.00,VWS V14.01,2013-05-16 23:14:00,
2013-05-16 19:15:00,82.6,53.7,30.03,North,0,0.0,0.0,37,0.00,,SCT055,0.00,VWS V14.01,2013-05-16 23:15:00,
2013-05-16 19:17:00,82.6,53.7,30.03,North,0,0.0,0.0,37,0.00,,SCT055,0.00,VWS V14.01,2013-05-16 23:17:00,
2013-05-16 19:18:00,82.6,53.7,30.03,North,0,0.0,0.0,37,0.00,,SCT055,0.00,VWS V14.01,2013-05-16 23:18:00,
2013-05-16 19:19:00,82.6,54.4,30.03,North,0,0.0,0.0,38,0.00,,SCT055,0.00,VWS V14.01,2013-05-16 23:19:00,
2013-05-16 19:20:00,82.6,54.4,30.03,North,0,0.0,0.0,38,0.00,,SCT055,0.00,VWS V14.01,2013-05-16 23:20:00,
2013-05-16 19:22:00,82.6,54.4,30.03,North,0,0.0,0.0,38,0.00,,SCT055,0.00,VWS V14.01,2013-05-16 23:22:00,
2013-05-16 19:24:00,82.4,53.5,30.03,North,0,0.0,0.0,37,0.00,,SCT055,0.00,VWS V14.01,2013-05-16 23:24:00,
2013-05-16 19:27:00,82.2,54.1,30.03,North,0,0.0,0.0,38,0.00,,SCT055,0.00,VWS V14.01,2013-05-16 23:27:00,
2013-05-16 19:28:00,82.2,54.1,30.03,North,0,0.0,0.0,38,0.00,,SCT055,0.00,VWS V14.01,2013-05-16 23:28:00,
2013-05-16 19:29:00,82.2,53.4,30.03,North,0,0.0,0.0,37,0.00,,SCT055,0.00,VWS V14.01,2013-05-16 23:29:00,
2013-05-16 19:34:00,81.9,53.8,30.03,North,0,0.0,0.0,38,0.00,,SCT055,0.00,VWS V14.01,2013-05-16 23:34:00,
2013-05-16 19:35:00,81.9,53.8,30.03,North,0,0.0,0.0,38,0.00,,SCT055,0.00,VWS V14.01,2013-05-16 23:35:00,
2013-05-16 19:36:00,81.7,54.3,30.03,North,0,0.0,0.0,39,0.00,,SCT055,0.00,VWS V14.01,2013-05-16 23:36:00,
2013-05-16 19:40:00,81.3,54.7,30.03,North,0,0.0,0.0,40,0.00,,SCT055,0.00,VWS V14.01,2013-05-16 23:40:00,
2013-05-16 19:41:00,81.3,54.7,30.03,North,0,0.0,0.0,40,0.00,,SCT055,0.00,VWS V14.01,2013-05-16 23:41:00,
2013-05-16 19:42:00,81.1,54.5,30.03,North,0,0.0,0.0,40,0.00,,SCT055,0.00,VWS V14.01,2013-05-16 23:42:00,
2013-05-16 19:45:00,81.0,54.4,30.03,North,0,0.0,0.0,40,0.00,,SCT055,0.00,VWS V14.01,2013-05-16 23:45:00,
2013-05-16 19:46:00,81.0,54.4,30.03,North,0,0.0,0.0,40,0.00,,SCT055,0.00,VWS V14.01,2013-05-16 23:46:00,
2013-05-16 19:47:00,81.0,54.4,30.03,North,0,0.0,0.0,40,0.00,,SCT055,0.00,VWS V14.01,2013-05-16 23:47:00,
2013-05-16 19:48:00,80.8,54.2,30.03,North,0,0.0,0.0,40,0.00,,SCT055,0.00,VWS V14.01,2013-05-16 23:48:00,
2013-05-16 19:51:00,80.4,54.6,30.03,North,0,0.0,0.0,41,0.00,,SCT055,0.00,VWS V14.01,2013-05-16 23:51:00,
2013-05-16 19:53:00,80.2,54.4,30.03,North,0,0.0,0.0,41,0.00,,SCT055,0.00,VWS V14.01,2013-05-16 23:53:00,
2013-05-16 19:55:00,80.2,54.4,30.03,North,0,0.0,0.0,41,0.00,,SCT055,0.00,VWS V14.01,2013-05-16 23:55:00,
2013-05-16 19:56:00,80.1,54.3,30.03,North,0,0.0,0.0,41,0.00,,SCT055,0.00,VWS V14.01,2013-05-16 23:56:00,
2013-05-16 19:58:00,80.1,54.3,30.03,North,0,0.0,0.0,41,0.00,,SCT055,0.00,VWS V14.01,2013-05-16 23:58:00,
2013-05-16 20:00:00,79.9,54.8,30.03,North,0,0.0,0.0,42,0.00,,SCT055,0.00,VWS V14.01,2013-05-17 00:00:00,
2013-05-16 20:01:00,79.7,54.6,30.03,North,0,0.0,0.0,42,0.00,,SCT055,0.00,VWS V14.01,2013-05-17 00:01:00,
2013-05-16 20:02:00,79.7,54.6,30.03,North,0,0.0,0.0,42,0.00,,SCT055,0.00,VWS V14.01,2013-05-17 00:02:00,
2013-05-16 20:06:00,79.5,54.4,30.03,North,0,0.0,0.0,42,0.00,,SCT055,0.00,VWS V14.01,2013-05-17 00:06:00,
2013-05-16 20:07:00,79.3,54.3,30.03,North,0,0.0,0.0,42,0.00,,SCT055,0.00,VWS V14.01,2013-05-17 00:07:00,
2013-05-16 20:08:00,79.3,54.3,30.03,North,0,0.0,0.0,42,0.00,,SCT055,0.00,VWS V14.01,2013-05-17 00:08:00,
2013-05-16 20:09:00,79.3,54.9,30.03,North,0,0.0,0.0,43,0.00,,SCT055,0.00,VWS V14.01,2013-05-17 00:09:00,
2013-05-16 20:11:00,79.2,54.1,30.03,North,0,0.0,0.0,42,0.00,,SCT055,0.00,VWS V14.01,2013-05-17 00:11:00,
2013-05-16 20:12:00,79.2,54.1,30.03,North,0,0.0,0.0,42,0.00,,SCT055,0.00,VWS V14.01,2013-05-17 00:12:00,
2013-05-16 20:13:00,79.2,54.8,30.03,North,0,0.0,0.0,43,0.00,,SCT055,0.00,VWS V14.01,2013-05-17 00:13:00,
2013-05-16 20:16:00,79.2,54.8,30.03,North,0,0.0,0.0,43,0.00,,SCT055,0.00,VWS V14.01,2013-05-17 00:16:00,
2013-05-16 20:18:00,79.2,54.8,30.03,North,0,0.0,0.0,43,0.00,,SCT055,0.00,VWS V14.01,2013-05-17 00:18:00,
2013-05-16 20:19:00,79.2,54.8,30.03,North,0,0.0,0.0,43,0.00,,SCT055,0.00,VWS V14.01,2013-05-17 00:19:00,
2013-05-16 20:21:00,79.2,54.8,30.03,North,0,0.0,0.0,43,0.00,,SCT055,0.00,VWS V14.01,2013-05-17 00:21:00,
2013-05-16 20:22:00,79.2,54.8,30.03,North,0,0.0,0.0,43,0.00,,SCT055,0.00,VWS V14.01,2013-05-17 00:22:00,
2013-05-16 20:24:00,79.0,54.6,30.03,North,0,0.0,0.0,43,0.00,,SCT055,0.00,VWS V14.01,2013-05-17 00:24:00,
2013-05-16 20:25:00,79.0,54.6,30.03,North,0,0.0,0.0,43,0.00,,SCT055,0.00,VWS V14.01,2013-05-17 00:25:00,
2013-05-16 20:27:00,79.0,55.2,30.03,North,0,0.0,0.0,44,0.00,,SCT055,0.00,VWS V14.01,2013-05-17 00:27:00,
2013-05-16 20:30:00,79.0,55.2,30.03,North,0,0.0,0.0,44,0.00,,SCT055,0.00,VWS V14.01,2013-05-17 00:30:00,
2013-05-16 20:31:00,78.8,55.1,30.03,North,0,0.0,0.0,44,0.00,,SCT055,0.00,VWS V14.01,2013-05-17 00:31:00,
2013-05-16 20:32:00,78.8,55.1,30.03,North,0,0.0,0.0,44,0.00,,SCT055,0.00,VWS V14.01,2013-05-17 00:32:00,
2013-05-16 20:34:00,78.8,55.7,30.03,North,0,0.0,0.0,45,0.00,,SCT055,0.00,VWS V14.01,2013-05-17 00:34:00,
2013-05-16 20:35:00,78.6,55.5,30.03,North,0,0.0,0.0,45,0.00,,SCT055,0.00,VWS V14.01,2013-05-17 00:35:00,
2013-05-16 20:37:00,78.6,55.5,30.03,North,0,0.0,0.0,45,0.00,,SCT055,0.00,VWS V14.01,2013-05-17 00:37:00,
2013-05-16 20:38:00,78.6,55.5,30.03,North,0,0.0,0.0,45,0.00,,SCT055,0.00,VWS V14.01,2013-05-17 00:38:00,
2013-05-16 20:40:00,78.6,55.5,30.03,North,0,0.0,0.0,45,0.00,,SCT055,0.00,VWS V14.01,2013-05-17 00:40:00,
2013-05-16 20:42:00,78.6,55.5,30.03,North,0,0.0,0.0,45,0.00,,SCT055,0.00,VWS V14.01,2013-05-17 00:42:00,
2013-05-16 20:45:00,78.6,55.5,30.03,North,0,0.0,0.0,45,0.00,,SCT055,0.00,VWS V14.01,2013-05-17 00:45:00,
2013-05-16 20:46:00,78.6,55.5,30.03,North,0,0.0,0.0,45,0.00,,SCT055,0.00,VWS V14.01,2013-05-17 00:46:00,
2013-05-16 20:48:00,78.6,55.5,30.03,North,0,0.0,0.0,45,0.00,,SCT055,0.00,VWS V14.01,2013-05-17 00:48:00,
2013-05-16 20:49:00,78.6,55.5,30.03,North,0,0.0,0.0,45,0.00,,SCT055,0.00,VWS V14.01,2013-05-17 00:49:00,
2013-05-16 20:51:00,78.6,55.5,30.03,North,0,0.0,0.0,45,0.00,,SCT055,0.00,VWS V14.01,2013-05-17 00:51:00,
2013-05-16 20:54:00,78.6,55.5,30.03,North,0,0.0,0.0,45,0.00,,SCT055,0.00,VWS V14.01,2013-05-17 00:54:00,
2013-05-16 20:55:00,78.6,55.5,30.03,North,0,0.0,0.0,45,0.00,,SCT055,0.00,VWS V14.01,2013-05-17 00:55:00,
2013-05-16 20:56:00,78.1,55.6,30.03,North,0,0.0,0.0,46,0.00,,SCT055,0.00,VWS V14.01,2013-05-17 00:56:00,
2013-05-16 20:57:00,78.1,55.6,30.03,North,0,0.0,0.0,46,0.00,,SCT055,0.00,VWS V14.01,2013-05-17 00:57:00,
2013-05-16 21:00:00,77.9,55.5,30.06,North,0,0.0,0.0,46,0.00,,SCT055,0.00,VWS V14.01,2013-05-17 01:00:00,
2013-05-16 21:01:00,77.9,55.5,30.06,North,0,0.0,0.0,46,0.00,,SCT055,0.00,VWS V14.01,2013-05-17 01:01:00,
2013-05-16 21:02:00,77.9,55.5,30.06,North,0,0.0,0.0,46,0.00,,SCT055,0.00,VWS V14.01,2013-05-17 01:02:00,
2013-05-16 21:05:00,77.9,55.5,30.06,North,0,0.0,0.0,46,0.00,,SCT055,0.00,VWS V14.01,2013-05-17 01:05:00,
2013-05-16 21:06:00,77.9,55.5,30.06,North,0,0.0,0.0,46,0.00,,SCT055,0.00,VWS V14.01,2013-05-17 01:06:00,
2013-05-16 21:07:00,77.9,56.1,30.06,North,0,0.0,0.0,47,0.00,,SCT055,0.00,VWS V14.01,2013-05-17 01:07:00,
2013-05-16 21:08:00,77.9,56.7,30.06,North,0,0.0,0.0,48,0.00,,SCT055,0.00,VWS V14.01,2013-05-17 01:08:00,
2013-05-16 21:10:00,77.9,56.7,30.06,North,0,0.0,0.0,48,0.00,,SCT055,0.00,VWS V14.01,2013-05-17 01:10:00,
2013-05-16 21:11:00,77.9,56.7,30.06,North,0,0.0,0.0,48,0.00,,SCT055,0.00,VWS V14.01,2013-05-17 01:11:00,
2013-05-16 21:14:00,77.7,56.5,30.06,North,0,0.0,0.0,48,0.00,,SCT055,0.00,VWS V14.01,2013-05-17 01:14:00,
2013-05-16 21:16:00,77.7,56.5,30.06,North,0,0.0,0.0,48,0.00,,SCT055,0.00,VWS V14.01,2013-05-17 01:16:00,
2013-05-16 21:18:00,77.7,56.5,30.06,North,0,0.0,0.0,48,0.00,,SCT055,0.00,VWS V14.01,2013-05-17 01:18:00,
2013-05-16 21:19:00,77.7,56.5,30.06,North,0,0.0,0.0,48,0.00,,SCT055,0.00,VWS V14.01,2013-05-17 01:19:00,
2013-05-16 21:20:00,77.7,56.5,30.06,North,0,0.0,0.0,48,0.00,,SCT055,0.00,VWS V14.01,2013-05-17 01:20:00,
2013-05-16 21:25:00,77.5,56.9,30.06,North,0,0.0,0.0,49,0.00,,SCT055,0.00,VWS V14.01,2013-05-17 01:25:00,
2013-05-16 21:26:00,77.5,56.9,30.06,North,0,0.0,0.0,49,0.00,,SCT055,0.00,VWS V14.01,2013-05-17 01:26:00,
2013-05-16 21:27:00,77.5,56.9,30.06,North,0,0.0,0.0,49,0.00,,SCT055,0.00,VWS V14.01,2013-05-17 01:27:00,
2013-05-16 21:30:00,77.5,56.9,30.06,North,0,0.0,0.0,49,0.00,,SCT055,0.00,VWS V14.01,2013-05-17 01:30:00,
2013-05-16 21:32:00,77.5,56.9,30.06,North,0,0.0,0.0,49,0.00,,SCT055,0.00,VWS V14.01,2013-05-17 01:32:00,
2013-05-16 21:33:00,77.5,56.9,30.06,North,0,0.0,0.0,49,0.00,,SCT055,0.00,VWS V14.01,2013-05-17 01:33:00,
2013-05-16 21:34:00,77.5,56.9,30.06,North,0,0.0,0.0,49,0.00,,SCT055,0.00,VWS V14.01,2013-05-17 01:34:00,
2013-05-16 21:35:00,77.5,56.9,30.06,North,0,0.0,0.0,49,0.00,,SCT055,0.00,VWS V14.01,2013-05-17 01:35:00,
2013-05-16 21:39:00,77.5,56.9,30.06,North,0,0.0,0.0,49,0.00,,SCT055,0.00,VWS V14.01,2013-05-17 01:39:00,
2013-05-16 21:40:00,77.5,56.9,30.06,North,0,0.0,0.0,49,0.00,,SCT055,0.00,VWS V14.01,2013-05-17 01:40:00,
2013-05-16 21:41:00,77.5,56.9,30.06,North,0,0.0,0.0,49,0.00,,SCT055,0.00,VWS V14.01,2013-05-17 01:41:00,
2013-05-16 21:44:00,77.5,56.9,30.06,North,0,0.0,0.0,49,0.00,,SCT055,0.00,VWS V14.01,2013-05-17 01:44:00,
2013-05-16 21:45:00,77.5,56.9,30.06,North,0,0.0,0.0,49,0.00,,SCT055,0.00,VWS V14.01,2013-05-17 01:45:00,
2013-05-16 21:47:00,77.4,56.7,30.06,North,0,0.0,0.0,49,0.00,,SCT055,0.00,VWS V14.01,2013-05-17 01:47:00,
2013-05-16 21:48:00,77.4,56.7,30.06,North,0,0.0,0.0,49,0.00,,SCT055,0.00,VWS V14.01,2013-05-17 01:48:00,
2013-05-16 21:51:00,77.4,56.2,30.06,North,0,0.0,0.0,48,0.00,,SCT055,0.00,VWS V14.01,2013-05-17 01:51:00,
2013-05-16 21:52:00,77.4,56.2,30.06,North,0,0.0,0.0,48,0.00,,SCT055,0.00,VWS V14.01,2013-05-17 01:52:00,
2013-05-16 21:55:00,77.2,56.0,30.06,North,0,0.0,0.0,48,0.00,,SCT055,0.00,VWS V14.01,2013-05-17 01:55:00,
2013-05-16 21:56:00,77.2,56.0,30.06,North,0,0.0,0.0,48,0.00,,SCT055,0.00,VWS V14.01,2013-05-17 01:56:00,
2013-05-16 21:57:00,77.2,56.0,30.06,North,0,0.0,0.0,48,0.00,,SCT055,0.00,VWS V14.01,2013-05-17 01:57:00,
2013-05-16 22:01:00,77.2,56.6,30.06,North,0,0.0,0.0,49,0.00,,SCT055,0.00,VWS V14.01,2013-05-17 02:01:00,
2013-05-16 22:02:00,77.0,56.4,30.06,North,0,0.0,0.0,49,0.00,,SCT055,0.00,VWS V14.01,2013-05-17 02:02:00,
2013-05-16 22:04:00,77.0,56.4,30.06,North,0,0.0,0.0,49,0.00,,SCT055,0.00,VWS V14.01,2013-05-17 02:04:00,
2013-05-16 22:06:00,77.0,56.4,30.06,North,0,0.0,0.0,49,0.00,,SCT055,0.00,VWS V14.01,2013-05-17 02:06:00,
2013-05-16 22:07:00,77.0,56.4,30.06,North,0,0.0,0.0,49,0.00,,SCT055,0.00,VWS V14.01,2013-05-17 02:07:00,
2013-05-16 22:08:00,77.0,56.4,30.06,North,0,0.0,0.0,49,0.00,,SCT055,0.00,VWS V14.01,2013-05-17 02:08:00,
2013-05-16 22:11:00,76.8,56.2,30.06,North,0,0.0,0.0,49,0.00,,SCT055,0.00,VWS V14.01,2013-05-17 02:11:00,
2013-05-16 22:12:00,76.8,56.2,30.06,North,0,0.0,0.0,49,0.00,,SCT055,0.00,VWS V14.01,2013-05-17 02:12:00,
2013-05-16 22:13:00,76.8,56.2,30.06,North,0,0.0,0.0,49,0.00,,SCT055,0.00,VWS V14.01,2013-05-17 02:13:00,
2013-05-16 22:14:00,76.8,56.2,30.06,North,0,0.0,0.0,49,0.00,,SCT055,0.00,VWS V14.01,2013-05-17 02:14:00,
2013-05-16 22:17:00,76.6,56.1,30.06,North,0,0.0,0.0,49,0.00,,SCT055,0.00,VWS V14.01,2013-05-17 02:17:00,
2013-05-16 22:18:00,76.6,56.1,30.06,North,0,0.0,0.0,49,0.00,,SCT055,0.00,VWS V14.01,2013-05-17 02:18:00,
2013-05-16 22:21:00,76.5,55.9,30.06,North,0,0.0,0.0,49,0.00,,SCT055,0.00,VWS V14.01,2013-05-17 02:21:00,
2013-05-16 22:22:00,76.5,55.9,30.06,North,0,0.0,0.0,49,0.00,,SCT055,0.00,VWS V14.01,2013-05-17 02:22:00,
2013-05-16 22:24:00,76.5,55.9,30.06,North,0,0.0,0.0,49,0.00,,SCT055,0.00,VWS V14.01,2013-05-17 02:24:00,
2013-05-16 22:25:00,76.5,55.9,30.06,North,0,0.0,0.0,49,0.00,,SCT055,0.00,VWS V14.01,2013-05-17 02:25:00,
2013-05-16 22:29:00,76.5,55.9,30.06,North,0,0.0,0.0,49,0.00,,SCT055,0.00,VWS V14.01,2013-05-17 02:29:00,
2013-05-16 22:30:00,76.5,55.9,30.06,North,0,0.0,0.0,49,0.00,,SCT055,0.00,VWS V14.01,2013-05-17 02:30:00,
2013-05-16 22:32:00,76.1,55.6,30.06,North,0,0.0,0.0,49,0.00,,SCT055,0.00,VWS V14.01,2013-05-17 02:32:00,
2013-05-16 22:35:00,75.7,55.2,30.06,North,0,0.0,0.0,49,0.00,,SCT055,0.00,VWS V14.01,2013-05-17 02:35:00,
2013-05-16 22:38:00,75.7,55.2,30.06,North,0,0.0,0.0,49,0.00,,SCT055,0.00,VWS V14.01,2013-05-17 02:38:00,
2013-05-16 22:39:00,75.6,55.1,30.06,North,0,0.0,0.0,49,0.00,,SCT055,0.00,VWS V14.01,2013-05-17 02:39:00,
2013-05-16 22:41:00,75.6,55.1,30.06,North,0,0.0,0.0,49,0.00,,SCT055,0.00,VWS V14.01,2013-05-17 02:41:00,
2013-05-16 22:44:00,75.6,55.1,30.06,North,0,0.0,0.0,49,0.00,,SCT055,0.00,VWS V14.01,2013-05-17 02:44:00,
2013-05-16 22:47:00,75.4,54.9,30.06,North,0,0.0,0.0,49,0.00,,SCT055,0.00,VWS V14.01,2013-05-17 02:47:00,
2013-05-16 22:50:00,75.4,54.9,30.06,North,0,0.0,0.0,49,0.00,,SCT055,0.00,VWS V14.01,2013-05-17 02:50:00,
2013-05-16 22:51:00,75.4,54.9,30.06,North,0,0.0,0.0,49,0.00,,SCT055,0.00,VWS V14.01,2013-05-17 02:51:00,
2013-05-16 22:56:00,75.4,54.9,30.06,North,0,0.0,0.0,49,0.00,,SCT055,0.00,VWS V14.01,2013-05-17 02:56:00,
2013-05-16 22:57:00,75.4,54.9,30.06,North,0,0.0,0.0,49,0.00,,SCT055,0.00,VWS V14.01,2013-05-17 02:57:00,
2013-05-16 22:58:00,75.6,55.1,30.06,North,0,0.0,0.0,49,0.00,,SCT055,0.00,VWS V14.01,2013-05-17 02:58:00,
2013-05-16 22:59:00,75.6,55.1,30.06,North,0,0.0,0.0,49,0.00,,SCT055,0.00,VWS V14.01,2013-05-17 02:59:00,
2013-05-16 23:02:00,75.7,55.2,30.06,North,0,0.0,0.0,49,0.00,,SCT055,0.00,VWS V14.01,2013-05-17 03:02:00,
2013-05-16 23:03:00,75.7,55.2,30.06,North,0,0.0,0.0,49,0.00,,SCT055,0.00,VWS V14.01,2013-05-17 03:03:00,
2013-05-16 23:04:00,75.7,55.2,30.06,North,0,0.0,0.0,49,0.00,,SCT055,0.00,VWS V14.01,2013-05-17 03:04:00,
2013-05-16 23:05:00,75.7,55.2,30.06,North,0,0.0,0.0,49,0.00,,SCT055,0.00,VWS V14.01,2013-05-17 03:05:00,
2013-05-16 23:07:00,75.7,55.2,30.06,North,0,0.0,0.0,49,0.00,,SCT055,0.00,VWS V14.01,2013-05-17 03:07:00,
2013-05-16 23:10:00,75.9,55.4,30.06,North,0,0.0,0.0,49,0.00,,SCT055,0.00,VWS V14.01,2013-05-17 03:10:00,
2013-05-16 23:11:00,75.9,55.4,30.06,North,0,0.0,0.0,49,0.00,,SCT055,0.00,VWS V14.01,2013-05-17 03:11:00,
2013-05-16 23:12:00,75.9,55.4,30.06,North,0,0.0,0.0,49,0.00,,SCT055,0.00,VWS V14.01,2013-05-17 03:12:00,
2013-05-16 23:13:00,76.1,55.6,30.09,North,0,0.0,0.0,49,0.00,,SCT055,0.00,VWS V14.01,2013-05-17 03:13:00,
2013-05-16 23:18:00,76.1,55.6,30.09,North,0,0.0,0.0,49,0.00,,SCT055,0.00,VWS V14.01,2013-05-17 03:18:00,
2013-05-16 23:19:00,76.3,55.7,30.09,North,0,0.0,0.0,49,0.00,,SCT055,0.00,VWS V14.01,2013-05-17 03:19:00,
2013-05-16 23:20:00,76.3,55.7,30.09,North,0,0.0,0.0,49,0.00,,SCT055,0.00,VWS V14.01,2013-05-17 03:20:00,
2013-05-16 23:21:00,76.3,55.7,30.09,North,0,0.0,0.0,49,0.00,,SCT055,0.00,VWS V14.01,2013-05-17 03:21:00,
2013-05-16 23:23:00,76.3,55.7,30.09,North,0,0.0,0.0,49,0.00,,SCT055,0.00,VWS V14.01,2013-05-17 03:23:00,
2013-05-16 23:25:00,76.3,55.7,30.09,North,0,0.0,0.0,49,0.00,,SCT055,0.00,VWS V14.01,2013-05-17 03:25:00,
2013-05-16 23:26:00,76.5,55.3,30.09,North,0,0.0,0.0,48,0.00,,SCT055,0.00,VWS V14.01,2013-05-17 03:26:00,
2013-05-16 23:29:00,76.5,55.3,30.09,North,0,0.0,0.0,48,0.00,,SCT055,0.00,VWS V14.01,2013-05-17 03:29:00,
2013-05-16 23:30:00,76.5,55.3,30.09,North,0,0.0,0.0,48,0.00,,SCT055,0.00,VWS V14.01,2013-05-17 03:30:00,
2013-05-16 23:33:00,76.5,55.3,30.09,North,0,0.0,0.0,48,0.00,,SCT055,0.00,VWS V14.01,2013-05-17 03:33:00,
2013-05-16 23:35:00,76.6,54.9,30.09,North,0,0.0,0.0,47,0.00,,SCT055,0.00,VWS V14.01,2013-05-17 03:35:00,
2013-05-16 23:37:00,76.6,54.9,30.09,North,0,0.0,0.0,47,0.00,,SCT055,0.00,VWS V14.01,2013-05-17 03:37:00,
2013-05-16 23:38:00,76.6,54.9,30.09,North,0,0.0,0.0,47,0.00,,SCT055,0.00,VWS V14.01,2013-05-17 03:38:00,
2013-05-16 23:40:00,76.6,54.9,30.09,North,0,0.0,0.0,47,0.00,,SCT055,0.00,VWS V14.01,2013-05-17 03:40:00,
2013-05-16 23:43:00,76.6,54.9,30.09,North,0,0.0,0.0,47,0.00,,SCT055,0.00,VWS V14.01,2013-05-17 03:43:00,
2013-05-16 23:46:00,76.6,54.9,30.09,North,0,0.0,0.0,47,0.00,,SCT055,0.00,VWS V14.01,2013-05-17 03:46:00,
2013-05-16 23:47:00,76.6,54.9,30.09,North,0,0.0,0.0,47,0.00,,SCT055,0.00,VWS V14.01,2013-05-17 03:47:00,
2013-05-16 23:48:00,76.6,54.9,30.09,North,0,0.0,0.0,47,0.00,,SCT055,0.00,VWS V14.01,2013-05-17 03:48:00,
2013-05-16 23:50:00,76.6,54.9,30.09,North,0,0.0,0.0,47,0.00,,SCT055,0.00,VWS V14.01,2013-05-17 03:50:00,
2013-05-16 23:53:00,76.6,54.9,30.09,North,0,0.0,0.0,47,0.00,,SCT055,0.00,VWS V14.01,2013-05-17 03:53:00,
2013-05-16 23:55:00,76.6,54.9,30.09,North,0,0.0,0.0,47,0.00,,SCT055,0.00,VWS V14.01,2013-05-17 03:55:00,
2013-05-16 23:58:00,76.6,54.9,30.09,North,0,0.0,0.0,47,0.00,,SCT055,0.00,VWS V14.01,2013-05-17 03:58:00,